Time,TemperatureF,DewpointF,PressureIn,WindDirection,WindDirectionDegrees,WindSpeedMPH,WindSpeedGustMPH,Humidity,HourlyPrecipIn,Conditions,Clouds,dailyrainin,SoftwareType,DateUTC
2013-09-09 00:01:00,60.4,58.7,30.03,NNE,24,0.0,0.0,94,0.00,,---,0.00,VWS V13.01,2013-09-09 04:01:00,
2013-09-09 00:02:00,60.4,58.7,30.03,NNE,24,1.0,1.0,94,0.00,,---,0.00,VWS V13.01,2013-09-09 04:02:00,
2013-09-09 00:04:00,60.4,58.7,30.03,NNE,24,0.0,1.0,94,0.00,,---,0.00,VWS V13.01,2013-09-09 04:04:00,
2013-09-09 00:09:00,60.3,58.6,30.03,NNE,24,0.0,1.0,94,0.00,,---,0.00,VWS V13.01,2013-09-09 04:09:00,
2013-09-09 00:14:00,60.3,58.6,30.03,NNE,24,0.0,1.0,94,0.00,,---,0.00,VWS V13.01,2013-09-09 04:14:00,
2013-09-09 00:19:00,60.2,58.5,30.03,NNE,24,0.0,1.0,94,0.00,,---,0.00,VWS V13.01,2013-09-09 04:19:00,
2013-09-09 00:24:00,60.1,58.4,30.03,NNE,24,0.0,1.0,94,0.00,,---,0.00,VWS V13.01,2013-09-09 04:24:00,
2013-09-09 00:29:00,60.0,58.3,30.03,NNE,24,0.0,1.0,94,0.00,,---,0.00,VWS V13.01,2013-09-09 04:29:00,
2013-09-09 00:34:00,59.8,58.1,30.03,NNE,24,0.0,0.0,94,0.00,,---,0.00,VWS V13.01,2013-09-09 04:34:00,
2013-09-09 00:39:00,59.7,58.0,30.04,NNE,24,0.0,0.0,94,0.00,,---,0.00,VWS V13.01,2013-09-09 04:39:00,
2013-09-09 00:44:00,59.5,57.8,30.03,NNE,24,0.0,0.0,94,0.00,,---,0.00,VWS V13.01,2013-09-09 04:44:00,
2013-09-09 00:49:00,59.4,57.7,30.03,NNE,24,0.0,1.0,94,0.00,,---,0.00,VWS V13.01,2013-09-09 04:49:00,
2013-09-09 00:54:00,59.2,57.5,30.03,NNE,24,0.0,1.0,94,0.00,,---,0.00,VWS V13.01,2013-09-09 04:54:00,
2013-09-09 00:59:00,59.1,57.4,30.03,NNE,24,0.0,1.0,94,0.00,,---,0.00,VWS V13.01,2013-09-09 04:59:00,
2013-09-09 01:04:00,59.0,57.3,30.03,NNE,24,0.0,0.0,94,0.00,,---,0.00,VWS V13.01,2013-09-09 05:04:00,
2013-09-09 01:09:00,59.0,57.3,30.03,NNE,24,0.0,1.0,94,0.00,,---,0.00,VWS V13.01,2013-09-09 05:09:00,
2013-09-09 01:14:00,58.9,57.5,30.03,NNE,24,0.0,0.0,95,0.00,,---,0.00,VWS V13.01,2013-09-09 05:14:00,
2013-09-09 01:19:00,58.9,57.5,30.03,NNE,24,1.0,2.0,95,0.00,,---,0.00,VWS V13.01,2013-09-09 05:19:00,
2013-09-09 01:24:00,58.8,57.4,30.03,NNE,28,0.0,2.0,95,0.00,,---,0.00,VWS V13.01,2013-09-09 05:24:00,
2013-09-09 01:29:00,58.8,57.4,30.03,NNE,28,0.0,2.0,95,0.00,,---,0.00,VWS V13.01,2013-09-09 05:29:00,
2013-09-09 01:34:00,58.8,57.4,30.03,NNE,28,0.0,1.0,95,0.00,,---,0.00,VWS V13.01,2013-09-09 05:34:00,
2013-09-09 01:39:00,58.7,57.3,30.03,NNE,28,0.0,2.0,95,0.00,,---,0.00,VWS V13.01,2013-09-09 05:39:00,
2013-09-09 01:44:00,58.7,57.3,30.03,NNE,28,0.0,1.0,95,0.00,,---,0.00,VWS V13.01,2013-09-09 05:44:00,
2013-09-09 01:49:00,58.7,57.3,30.03,NNE,28,0.0,2.0,95,0.00,,---,0.00,VWS V13.01,2013-09-09 05:49:00,
2013-09-09 01:54:00,58.8,57.4,30.03,NNE,22,2.0,5.0,95,0.00,,---,0.00,VWS V13.01,2013-09-09 05:54:00,
2013-09-09 01:59:00,58.9,57.5,30.03,East,88,0.0,5.0,95,0.00,,---,0.00,VWS V13.01,2013-09-09 05:59:00,
2013-09-09 02:04:00,59.0,57.3,30.03,ENE,58,1.0,4.0,94,0.00,,---,0.00,VWS V13.01,2013-09-09 06:04:00,
2013-09-09 02:09:00,59.1,57.1,30.03,North,11,0.0,4.0,93,0.00,,---,0.00,VWS V13.01,2013-09-09 06:09:00,
2013-09-09 02:14:00,59.2,57.2,30.03,ENE,61,0.0,1.0,93,0.00,,---,0.00,VWS V13.01,2013-09-09 06:14:00,
2013-09-09 02:19:00,59.2,56.9,30.03,ENE,73,2.0,2.0,92,0.00,,---,0.00,VWS V13.01,2013-09-09 06:19:00,
2013-09-09 02:24:00,59.5,56.9,30.03,East,90,2.0,5.0,91,0.00,,---,0.00,VWS V13.01,2013-09-09 06:24:00,
2013-09-09 02:29:00,60.2,56.6,30.03,NE,53,2.0,10.0,88,0.00,,---,0.00,VWS V13.01,2013-09-09 06:29:00,
2013-09-09 02:34:00,60.9,56.4,30.03,ESE,111,1.0,7.0,85,0.00,,---,0.00,VWS V13.01,2013-09-09 06:34:00,
2013-09-09 02:39:00,61.4,56.5,30.03,SSE,155,0.0,7.0,84,0.00,,---,0.00,VWS V13.01,2013-09-09 06:39:00,
2013-09-09 02:44:00,61.8,56.2,30.03,SE,142,3.0,6.0,82,0.00,,---,0.00,VWS V13.01,2013-09-09 06:44:00,
2013-09-09 02:49:00,62.1,56.2,30.03,ENE,76,2.0,2.0,81,0.00,,---,0.00,VWS V13.01,2013-09-09 06:49:00,
2013-09-09 02:54:00,62.3,56.4,30.03,East,86,2.0,10.0,81,0.00,,---,0.00,VWS V13.01,2013-09-09 06:54:00,
2013-09-09 02:59:00,62.3,56.4,30.03,East,80,3.0,10.0,81,0.00,,---,0.00,VWS V13.01,2013-09-09 06:59:00,
2013-09-09 03:04:00,62.3,56.1,30.03,ESE,121,0.0,7.0,80,0.00,,---,0.00,VWS V13.01,2013-09-09 07:04:00,
2013-09-09 03:09:00,62.3,56.1,30.03,ENE,76,2.0,2.0,80,0.00,,---,0.00,VWS V13.01,2013-09-09 07:09:00,
2013-09-09 03:14:00,62.3,55.7,30.03,ESE,104,0.0,6.0,79,0.00,,---,0.00,VWS V13.01,2013-09-09 07:14:00,
2013-09-09 03:19:00,62.3,55.7,30.03,East,80,0.0,0.0,79,0.00,,---,0.00,VWS V13.01,2013-09-09 07:19:00,
2013-09-09 03:24:00,62.3,55.7,30.03,East,88,1.0,5.0,79,0.00,,---,0.00,VWS V13.01,2013-09-09 07:24:00,
2013-09-09 03:29:00,62.3,55.7,30.03,SSW,202,3.0,5.0,79,0.00,,---,0.00,VWS V13.01,2013-09-09 07:29:00,
2013-09-09 03:34:00,62.3,55.4,30.03,East,92,2.0,3.0,78,0.00,,---,0.00,VWS V13.01,2013-09-09 07:34:00,
2013-09-09 03:39:00,62.4,55.5,30.03,East,81,0.0,9.0,78,0.00,,---,0.00,VWS V13.01,2013-09-09 07:39:00,
2013-09-09 03:44:00,62.5,55.6,30.03,East,96,1.0,3.0,78,0.00,,---,0.00,VWS V13.01,2013-09-09 07:44:00,
2013-09-09 03:49:00,62.3,55.4,30.03,SSE,166,7.0,8.0,78,0.00,,---,0.00,VWS V13.01,2013-09-09 07:49:00,
2013-09-09 03:54:00,62.3,55.4,30.03,South,180,0.0,5.0,78,0.00,,---,0.00,VWS V13.01,2013-09-09 07:54:00,
2013-09-09 03:59:00,62.2,55.3,30.03,East,91,0.0,5.0,78,0.00,,---,0.00,VWS V13.01,2013-09-09 07:59:00,
2013-09-09 04:04:00,62.1,55.2,30.03,SSE,165,0.0,3.0,78,0.00,,---,0.00,VWS V13.01,2013-09-09 08:04:00,
2013-09-09 04:09:00,62.0,55.4,30.04,SW,225,2.0,3.0,79,0.00,,---,0.00,VWS V13.01,2013-09-09 08:09:00,
2013-09-09 04:14:00,61.8,55.6,30.04,NE,45,0.0,3.0,80,0.00,,---,0.00,VWS V13.01,2013-09-09 08:14:00,
2013-09-09 04:19:00,61.6,55.4,30.04,NE,45,0.0,3.0,80,0.00,,---,0.00,VWS V13.01,2013-09-09 08:19:00,
2013-09-09 04:24:00,61.4,55.5,30.04,ENE,72,0.0,2.0,81,0.00,,---,0.00,VWS V13.01,2013-09-09 08:24:00,
2013-09-09 04:29:00,61.5,55.6,30.04,East,92,0.0,5.0,81,0.00,,---,0.00,VWS V13.01,2013-09-09 08:29:00,
2013-09-09 04:34:00,61.6,55.7,30.05,SE,132,1.0,4.0,81,0.00,,---,0.00,VWS V13.01,2013-09-09 08:34:00,
2013-09-09 04:39:00,61.7,55.8,30.05,SE,142,0.0,4.0,81,0.00,,---,0.00,VWS V13.01,2013-09-09 08:39:00,
2013-09-09 04:44:00,61.8,55.9,30.05,ESE,107,1.0,5.0,81,0.00,,---,0.00,VWS V13.01,2013-09-09 08:44:00,
2013-09-09 04:49:00,61.9,56.0,30.05,ESE,108,2.0,5.0,81,0.00,,---,0.00,VWS V13.01,2013-09-09 08:49:00,
2013-09-09 04:54:00,62.0,56.1,30.06,ESE,117,1.0,5.0,81,0.00,,---,0.00,VWS V13.01,2013-09-09 08:54:00,
2013-09-09 04:59:00,62.0,56.1,30.05,ESE,102,3.0,5.0,81,0.00,,---,0.00,VWS V13.01,2013-09-09 08:59:00,
2013-09-09 05:04:00,62.0,56.1,30.05,East,85,2.0,6.0,81,0.00,,---,0.00,VWS V13.01,2013-09-09 09:04:00,
2013-09-09 05:09:00,62.0,56.1,30.06,ESE,118,3.0,6.0,81,0.00,,---,0.00,VWS V13.01,2013-09-09 09:09:00,
2013-09-09 05:14:00,62.0,56.1,30.06,East,86,3.0,5.0,81,0.00,,---,0.00,VWS V13.01,2013-09-09 09:14:00,
2013-09-09 05:19:00,61.9,56.0,30.06,East,84,2.0,8.0,81,0.00,,---,0.00,VWS V13.01,2013-09-09 09:19:00,
2013-09-09 05:24:00,61.8,55.9,30.06,ESE,107,0.0,5.0,81,0.00,,---,0.00,VWS V13.01,2013-09-09 09:24:00,
2013-09-09 05:29:00,61.8,55.9,30.06,East,87,2.0,10.0,81,0.00,,---,0.00,VWS V13.01,2013-09-09 09:29:00,
2013-09-09 05:34:00,61.8,55.9,30.06,East,94,1.0,8.0,81,0.00,,---,0.00,VWS V13.01,2013-09-09 09:34:00,
2013-09-09 05:39:00,61.7,55.8,30.06,SE,144,2.0,3.0,81,0.00,,---,0.00,VWS V13.01,2013-09-09 09:39:00,
2013-09-09 05:44:00,61.8,55.9,30.06,SE,134,3.0,8.0,81,0.00,,---,0.00,VWS V13.01,2013-09-09 09:44:00,
2013-09-09 05:49:00,61.8,55.9,30.06,ESE,114,3.0,5.0,81,0.00,,---,0.00,VWS V13.01,2013-09-09 09:49:00,
2013-09-09 05:54:00,61.7,55.8,30.06,East,86,5.0,7.0,81,0.00,,---,0.00,VWS V13.01,2013-09-09 09:54:00,
2013-09-09 05:59:00,61.7,55.8,30.06,SSE,156,2.0,7.0,81,0.00,,---,0.00,VWS V13.01,2013-09-09 09:59:00,
2013-09-09 06:04:00,61.6,55.7,30.06,ENE,62,2.0,4.0,81,0.00,,---,0.00,VWS V13.01,2013-09-09 10:04:00,
2013-09-09 06:09:00,61.5,55.6,30.06,SE,130,1.0,3.0,81,0.00,,---,0.00,VWS V13.01,2013-09-09 10:09:00,
2013-09-09 06:14:00,61.5,55.6,30.06,ESE,121,0.0,4.0,81,0.00,,---,0.00,VWS V13.01,2013-09-09 10:14:00,
2013-09-09 06:19:00,61.5,55.6,30.06,SSW,202,1.0,3.0,81,0.00,,---,0.00,VWS V13.01,2013-09-09 10:19:00,
2013-09-09 06:24:00,61.6,55.7,30.06,SSW,195,3.0,6.0,81,0.00,,---,0.00,VWS V13.01,2013-09-09 10:24:00,
2013-09-09 06:29:00,61.6,55.7,30.06,SSE,150,3.0,8.0,81,0.00,,---,0.00,VWS V13.01,2013-09-09 10:29:00,
2013-09-09 06:34:00,61.7,55.8,30.06,SSW,213,1.0,10.0,81,0.00,,---,0.00,VWS V13.01,2013-09-09 10:34:00,
2013-09-09 06:39:00,61.7,55.8,30.06,SSE,148,4.0,4.0,81,0.00,,---,0.00,VWS V13.01,2013-09-09 10:39:00,
2013-09-09 06:44:00,61.8,55.6,30.06,South,175,2.0,10.0,80,0.00,,---,0.00,VWS V13.01,2013-09-09 10:44:00,
2013-09-09 06:49:00,61.8,55.6,30.06,SSE,166,3.0,6.0,80,0.00,,---,0.00,VWS V13.01,2013-09-09 10:49:00,
2013-09-09 06:54:00,61.8,55.6,30.06,ESE,123,0.0,7.0,80,0.00,,---,0.00,VWS V13.01,2013-09-09 10:54:00,
2013-09-09 06:59:00,61.7,55.5,30.06,ESE,121,3.0,9.0,80,0.00,,---,0.00,VWS V13.01,2013-09-09 10:59:00,
2013-09-09 07:04:00,61.6,55.4,30.06,SSE,151,1.0,9.0,80,0.00,,---,0.00,VWS V13.01,2013-09-09 11:04:00,
2013-09-09 07:09:00,61.5,55.6,30.06,SE,143,8.0,8.0,81,0.00,,---,0.00,VWS V13.01,2013-09-09 11:09:00,
2013-09-09 07:14:00,61.5,55.3,30.06,South,171,2.0,8.0,80,0.00,,---,0.00,VWS V13.01,2013-09-09 11:14:00,
2013-09-09 07:19:00,61.5,55.3,30.07,SSW,198,1.0,1.0,80,0.00,,---,0.00,VWS V13.01,2013-09-09 11:19:00,
2013-09-09 07:24:00,61.5,55.3,30.07,SW,226,2.0,6.0,80,0.00,,---,0.00,VWS V13.01,2013-09-09 11:24:00,
2013-09-09 07:29:00,61.5,55.3,30.07,ESE,117,1.0,3.0,80,0.00,,---,0.00,VWS V13.01,2013-09-09 11:29:00,
2013-09-09 07:34:00,61.6,55.4,30.07,SE,144,0.0,9.0,80,0.00,,---,0.00,VWS V13.01,2013-09-09 11:34:00,
2013-09-09 07:39:00,61.8,55.6,30.07,South,179,1.0,4.0,80,0.00,,---,0.00,VWS V13.01,2013-09-09 11:39:00,
2013-09-09 07:44:00,62.0,55.8,30.07,SE,137,0.0,7.0,80,0.00,,---,0.00,VWS V13.01,2013-09-09 11:44:00,
2013-09-09 07:49:00,62.1,55.9,30.07,SE,134,2.0,5.0,80,0.00,,---,0.00,VWS V13.01,2013-09-09 11:49:00,
2013-09-09 07:54:00,62.2,55.6,30.07,South,181,1.0,7.0,79,0.00,,---,0.00,VWS V13.01,2013-09-09 11:54:00,
2013-09-09 07:59:00,62.3,55.4,30.07,SSE,149,6.0,6.0,78,0.00,,---,0.00,VWS V13.01,2013-09-09 11:59:00,
2013-09-09 08:04:00,62.4,55.8,30.07,SSE,159,2.0,7.0,79,0.00,,---,0.00,VWS V13.01,2013-09-09 12:04:00,
2013-09-09 08:09:00,62.5,55.6,30.07,South,191,2.0,4.0,78,0.00,,---,0.00,VWS V13.01,2013-09-09 12:09:00,
2013-09-09 08:14:00,62.6,56.0,30.07,SE,138,4.0,6.0,79,0.00,,---,0.00,VWS V13.01,2013-09-09 12:14:00,
2013-09-09 08:19:00,62.8,55.8,30.07,ESE,121,0.0,0.0,78,0.00,,---,0.00,VWS V13.01,2013-09-09 12:19:00,
2013-09-09 08:24:00,63.1,56.1,30.07,SSE,150,3.0,7.0,78,0.00,,---,0.00,VWS V13.01,2013-09-09 12:24:00,
2013-09-09 08:29:00,63.4,56.1,30.08,SE,144,3.0,3.0,77,0.00,,---,0.00,VWS V13.01,2013-09-09 12:29:00,
2013-09-09 08:34:00,63.5,56.2,30.08,South,184,2.0,6.0,77,0.00,,---,0.00,VWS V13.01,2013-09-09 12:34:00,
2013-09-09 08:39:00,63.6,56.3,30.08,South,171,1.0,3.0,77,0.00,,---,0.00,VWS V13.01,2013-09-09 12:39:00,
2013-09-09 08:44:00,63.8,56.5,30.08,SE,142,5.0,9.0,77,0.00,,---,0.00,VWS V13.01,2013-09-09 12:44:00,
2013-09-09 08:49:00,63.9,56.6,30.08,SE,140,2.0,2.0,77,0.00,,---,0.00,VWS V13.01,2013-09-09 12:49:00,
2013-09-09 08:54:00,64.2,56.5,30.08,SE,142,3.0,7.0,76,0.00,,---,0.00,VWS V13.01,2013-09-09 12:54:00,
2013-09-09 08:59:00,64.5,56.8,30.08,SSE,155,6.0,7.0,76,0.00,,---,0.00,VWS V13.01,2013-09-09 12:59:00,
2013-09-09 09:04:00,64.7,56.6,30.08,SSE,151,3.0,8.0,75,0.00,,---,0.00,VWS V13.01,2013-09-09 13:04:00,
2013-09-09 09:09:00,65.0,56.9,30.08,SSE,157,1.0,3.0,75,0.00,,---,0.00,VWS V13.01,2013-09-09 13:09:00,
2013-09-09 09:14:00,65.4,57.3,30.08,South,182,1.0,5.0,75,0.00,,---,0.00,VWS V13.01,2013-09-09 13:14:00,
2013-09-09 09:19:00,65.9,57.4,30.08,SE,141,2.0,4.0,74,0.00,,---,0.00,VWS V13.01,2013-09-09 13:19:00,
2013-09-09 09:24:00,66.3,57.8,30.08,ESE,105,3.0,9.0,74,0.00,,---,0.00,VWS V13.01,2013-09-09 13:24:00,
2013-09-09 09:29:00,66.7,57.8,30.08,SSE,155,3.0,4.0,73,0.00,,---,0.00,VWS V13.01,2013-09-09 13:29:00,
2013-09-09 09:34:00,66.8,58.3,30.08,SE,142,2.0,8.0,74,0.00,,---,0.00,VWS V13.01,2013-09-09 13:34:00,
2013-09-09 09:39:00,67.1,58.5,30.08,SE,140,5.0,7.0,74,0.00,,---,0.00,VWS V13.01,2013-09-09 13:39:00,
2013-09-09 09:44:00,67.5,58.5,30.08,SE,137,5.0,7.0,73,0.00,,---,0.00,VWS V13.01,2013-09-09 13:44:00,
2013-09-09 09:49:00,67.7,58.4,30.08,South,188,2.0,3.0,72,0.00,,---,0.00,VWS V13.01,2013-09-09 13:49:00,
2013-09-09 09:54:00,67.9,58.5,30.08,South,184,2.0,8.0,72,0.00,,---,0.00,VWS V13.01,2013-09-09 13:54:00,
2013-09-09 09:59:00,68.3,59.3,30.08,SE,138,0.0,8.0,73,0.00,,---,0.00,VWS V13.01,2013-09-09 13:59:00,
2013-09-09 10:04:00,68.7,59.3,30.08,ESE,115,1.0,7.0,72,0.00,,---,0.00,VWS V13.01,2013-09-09 14:04:00,
2013-09-09 10:09:00,69.1,59.7,30.08,SSE,150,1.0,7.0,72,0.00,,---,0.00,VWS V13.01,2013-09-09 14:09:00,
2013-09-09 10:14:00,69.4,59.6,30.08,SE,139,3.0,9.0,71,0.00,,---,0.00,VWS V13.01,2013-09-09 14:14:00,
2013-09-09 10:19:00,69.5,59.7,30.08,SSW,206,0.0,3.0,71,0.00,,---,0.00,VWS V13.01,2013-09-09 14:19:00,
2013-09-09 10:24:00,69.7,60.3,30.08,SE,135,5.0,7.0,72,0.00,,---,0.00,VWS V13.01,2013-09-09 14:24:00,
2013-09-09 10:29:00,69.9,60.1,30.08,ESE,111,5.0,5.0,71,0.00,,---,0.00,VWS V13.01,2013-09-09 14:29:00,
2013-09-09 10:34:00,70.3,60.9,30.08,East,85,0.0,9.0,72,0.00,,---,0.00,VWS V13.01,2013-09-09 14:34:00,
2013-09-09 10:39:00,70.6,60.8,30.08,SSE,161,2.0,3.0,71,0.00,,---,0.00,VWS V13.01,2013-09-09 14:39:00,
2013-09-09 10:44:00,71.1,60.8,30.08,SSE,148,4.0,7.0,70,0.00,,---,0.00,VWS V13.01,2013-09-09 14:44:00,
2013-09-09 10:49:00,71.4,61.1,30.08,SE,146,1.0,1.0,70,0.00,,---,0.00,VWS V13.01,2013-09-09 14:49:00,
2013-09-09 10:54:00,71.8,61.5,30.08,SSE,159,3.0,6.0,70,0.00,,---,0.00,VWS V13.01,2013-09-09 14:54:00,
2013-09-09 10:59:00,72.2,61.9,30.08,SSE,161,2.0,7.0,70,0.00,,---,0.00,VWS V13.01,2013-09-09 14:59:00,
2013-09-09 11:04:00,72.6,62.7,30.08,SSE,162,3.0,10.0,71,0.00,,---,0.00,VWS V13.01,2013-09-09 15:04:00,
2013-09-09 11:09:00,73.0,62.7,30.08,East,99,3.0,3.0,70,0.00,,---,0.00,VWS V13.01,2013-09-09 15:09:00,
2013-09-09 11:14:00,73.2,62.4,30.08,SSE,157,2.0,7.0,69,0.00,,---,0.00,VWS V13.01,2013-09-09 15:14:00,
2013-09-09 11:19:00,73.6,63.2,30.08,SE,145,3.0,3.0,70,0.00,,---,0.00,VWS V13.01,2013-09-09 15:19:00,
2013-09-09 11:24:00,74.2,63.4,30.08,SE,125,1.0,6.0,69,0.00,,---,0.00,VWS V13.01,2013-09-09 15:24:00,
2013-09-09 11:29:00,74.6,62.9,30.08,SSE,148,2.0,3.0,67,0.00,,---,0.00,VWS V13.01,2013-09-09 15:29:00,
2013-09-09 11:34:00,74.9,64.1,30.07,SSE,157,1.0,5.0,69,0.00,,---,0.00,VWS V13.01,2013-09-09 15:34:00,
2013-09-09 11:39:00,75.3,64.0,30.08,SSW,205,3.0,3.0,68,0.00,,---,0.00,VWS V13.01,2013-09-09 15:39:00,
2013-09-09 11:44:00,75.6,64.7,30.07,SSW,196,3.0,5.0,69,0.00,,---,0.00,VWS V13.01,2013-09-09 15:44:00,
2013-09-09 11:49:00,76.0,64.7,30.07,SSW,210,2.0,3.0,68,0.00,,---,0.00,VWS V13.01,2013-09-09 15:49:00,
2013-09-09 11:54:00,76.3,65.0,30.07,East,94,1.0,7.0,68,0.00,,---,0.00,VWS V13.01,2013-09-09 15:54:00,
2013-09-09 11:59:00,76.6,65.3,30.07,SE,138,1.0,7.0,68,0.00,,---,0.00,VWS V13.01,2013-09-09 15:59:00,
2013-09-09 12:04:00,76.7,64.9,30.07,SE,142,2.0,8.0,67,0.00,,---,0.00,VWS V13.01,2013-09-09 16:04:00,
2013-09-09 12:09:00,76.9,65.5,30.07,ESE,119,0.0,2.0,68,0.00,,---,0.00,VWS V13.01,2013-09-09 16:09:00,
2013-09-09 12:14:00,77.0,66.1,30.06,ESE,106,1.0,4.0,69,0.00,,---,0.00,VWS V13.01,2013-09-09 16:14:00,
2013-09-09 12:19:00,77.3,65.9,30.06,South,175,1.0,2.0,68,0.00,,---,0.00,VWS V13.01,2013-09-09 16:19:00,
2013-09-09 12:24:00,77.7,67.1,30.06,SSE,153,1.0,4.0,70,0.00,,---,0.00,VWS V13.01,2013-09-09 16:24:00,
2013-09-09 12:29:00,78.0,66.6,30.06,SSE,167,2.0,5.0,68,0.00,,---,0.00,VWS V13.01,2013-09-09 16:29:00,
2013-09-09 12:34:00,78.2,66.8,30.06,SSW,209,4.0,9.0,68,0.00,,---,0.00,VWS V13.01,2013-09-09 16:34:00,
2013-09-09 12:39:00,78.2,67.2,30.06,South,182,1.0,1.0,69,0.00,,---,0.00,VWS V13.01,2013-09-09 16:39:00,
2013-09-09 12:44:00,78.3,67.7,30.06,SW,216,2.0,5.0,70,0.00,,---,0.00,VWS V13.01,2013-09-09 16:44:00,
2013-09-09 12:49:00,78.4,67.4,30.06,SW,227,1.0,3.0,69,0.00,,---,0.00,VWS V13.01,2013-09-09 16:49:00,
2013-09-09 12:54:00,78.3,67.7,30.06,SSW,209,3.0,5.0,70,0.00,,---,0.00,VWS V13.01,2013-09-09 16:54:00,
2013-09-09 12:59:00,78.0,67.4,30.06,WSW,251,2.0,6.0,70,0.00,,---,0.00,VWS V13.01,2013-09-09 16:59:00,
2013-09-09 13:04:00,77.7,67.1,30.05,WSW,244,2.0,6.0,70,0.00,,---,0.00,VWS V13.01,2013-09-09 17:04:00,
2013-09-09 13:09:00,77.5,67.8,30.05,WSW,249,5.0,7.0,72,0.00,,---,0.00,VWS V13.01,2013-09-09 17:09:00,
2013-09-09 13:14:00,77.4,67.7,30.05,WSW,238,4.0,7.0,72,0.00,,---,0.00,VWS V13.01,2013-09-09 17:14:00,
2013-09-09 13:19:00,77.4,67.3,30.05,SSW,210,6.0,7.0,71,0.00,,---,0.00,VWS V13.01,2013-09-09 17:19:00,
2013-09-09 13:24:00,77.2,67.1,30.05,SW,226,5.0,9.0,71,0.00,,---,0.00,VWS V13.01,2013-09-09 17:24:00,
2013-09-09 13:29:00,77.2,67.5,30.05,WSW,242,4.0,5.0,72,0.00,,---,0.00,VWS V13.01,2013-09-09 17:29:00,
2013-09-09 13:34:00,77.1,67.0,30.05,SW,219,3.0,6.0,71,0.00,,---,0.00,VWS V13.01,2013-09-09 17:34:00,
2013-09-09 13:39:00,77.0,67.3,30.05,WSW,250,4.0,5.0,72,0.00,,---,0.00,VWS V13.01,2013-09-09 17:39:00,
2013-09-09 13:44:00,77.0,67.7,30.05,SW,234,0.0,5.0,73,0.00,,---,0.00,VWS V13.01,2013-09-09 17:44:00,
2013-09-09 13:49:00,77.0,67.7,30.05,WSW,246,3.0,3.0,73,0.00,,---,0.00,VWS V13.01,2013-09-09 17:49:00,
2013-09-09 13:54:00,77.2,67.9,30.05,WSW,249,0.0,5.0,73,0.00,,---,0.00,VWS V13.01,2013-09-09 17:54:00,
2013-09-09 13:59:00,77.5,68.2,30.04,SW,214,2.0,5.0,73,0.00,,---,0.00,VWS V13.01,2013-09-09 17:59:00,
2013-09-09 14:04:00,78.1,68.8,30.04,SW,232,3.0,4.0,73,0.00,,---,0.00,VWS V13.01,2013-09-09 18:04:00,
2013-09-09 14:11:00,78.6,68.8,30.04,West,273,0.0,4.0,72,0.00,,---,0.00,VWS V13.01,2013-09-09 18:11:00,
2013-09-09 14:16:00,79.4,69.2,30.04,SSW,201,3.0,6.0,71,0.00,,---,0.00,VWS V13.01,2013-09-09 18:16:00,
2013-09-09 14:21:00,79.8,69.2,30.04,SE,144,4.0,4.0,70,0.00,,---,0.00,VWS V13.01,2013-09-09 18:21:00,
2013-09-09 14:26:00,80.0,68.9,30.04,SSE,150,2.0,6.0,69,0.00,,---,0.00,VWS V13.01,2013-09-09 18:26:00,
2013-09-09 14:31:00,80.1,69.0,30.04,SE,142,0.0,4.0,69,0.00,,---,0.00,VWS V13.01,2013-09-09 18:31:00,
2013-09-09 14:36:00,79.9,68.4,30.04,SSE,149,1.0,6.0,68,0.00,,---,0.00,VWS V13.01,2013-09-09 18:36:00,
2013-09-09 14:41:00,79.8,68.3,30.04,SSE,148,0.0,1.0,68,0.00,,---,0.00,VWS V13.01,2013-09-09 18:41:00,
2013-09-09 14:46:00,79.8,68.7,30.04,South,171,0.0,2.0,69,0.00,,---,0.00,VWS V13.01,2013-09-09 18:46:00,
2013-09-09 14:51:00,79.7,68.6,30.04,SSE,161,1.0,4.0,69,0.00,,---,0.00,VWS V13.01,2013-09-09 18:51:00,
2013-09-09 14:57:00,79.8,68.3,30.03,SSE,160,2.0,4.0,68,0.00,,---,0.00,VWS V13.01,2013-09-09 18:57:00,
2013-09-09 15:02:00,80.0,68.5,30.03,East,94,2.0,2.0,68,0.00,,---,0.00,VWS V13.01,2013-09-09 19:02:00,
2013-09-09 15:07:00,80.1,69.4,30.03,ENE,76,2.0,5.0,70,0.00,,---,0.00,VWS V13.01,2013-09-09 19:07:00,
2013-09-09 15:12:00,80.1,69.0,30.03,SE,125,2.0,7.0,69,0.00,,---,0.00,VWS V13.01,2013-09-09 19:12:00,
2013-09-09 15:17:00,79.8,68.7,30.02,East,96,3.0,7.0,69,0.00,,---,0.00,VWS V13.01,2013-09-09 19:17:00,
2013-09-09 15:22:00,79.6,69.0,30.02,East,83,1.0,6.0,70,0.00,,---,0.00,VWS V13.01,2013-09-09 19:22:00,
2013-09-09 15:27:00,79.4,68.3,30.02,East,83,5.0,6.0,69,0.00,,---,0.00,VWS V13.01,2013-09-09 19:27:00,
2013-09-09 15:32:00,79.6,69.4,30.02,SE,142,2.0,4.0,71,0.00,,---,0.00,VWS V13.01,2013-09-09 19:32:00,
2013-09-09 15:37:00,79.9,68.8,30.02,East,85,5.0,5.0,69,0.00,,---,0.00,VWS V13.01,2013-09-09 19:37:00,
2013-09-09 15:42:00,79.9,68.8,30.02,East,94,6.0,7.0,69,0.00,,---,0.00,VWS V13.01,2013-09-09 19:42:00,
2013-09-09 15:47:00,79.6,69.0,30.02,ESE,109,3.0,7.0,70,0.00,,---,0.00,VWS V13.01,2013-09-09 19:47:00,
2013-09-09 15:52:00,79.5,68.9,30.01,East,89,0.0,5.0,70,0.00,,---,0.00,VWS V13.01,2013-09-09 19:52:00,
2013-09-09 15:57:00,79.7,69.1,30.01,ENE,73,3.0,5.0,70,0.00,,---,0.00,VWS V13.01,2013-09-09 19:57:00,
2013-09-09 16:02:00,79.9,68.8,30.01,ESE,104,1.0,4.0,69,0.00,,---,0.00,VWS V13.01,2013-09-09 20:02:00,
2013-09-09 16:07:00,80.2,69.1,30.01,ENE,67,4.0,6.0,69,0.00,,---,0.00,VWS V13.01,2013-09-09 20:07:00,
2013-09-09 16:12:00,80.3,69.6,30.01,East,86,3.0,5.0,70,0.00,,---,0.00,VWS V13.01,2013-09-09 20:12:00,
2013-09-09 16:17:00,80.2,68.7,30.00,East,86,1.0,5.0,68,0.00,,---,0.00,VWS V13.01,2013-09-09 20:17:00,
2013-09-09 16:22:00,79.9,68.8,30.00,SSW,207,2.0,5.0,69,0.00,,---,0.00,VWS V13.01,2013-09-09 20:22:00,
2013-09-09 16:27:00,79.5,68.9,30.00,ENE,76,0.0,6.0,70,0.00,,---,0.00,VWS V13.01,2013-09-09 20:27:00,
2013-09-09 16:32:00,79.2,68.6,30.00,SE,144,0.0,5.0,70,0.00,,---,0.00,VWS V13.01,2013-09-09 20:32:00,
2013-09-09 16:37:00,78.9,68.3,30.00,SE,133,1.0,5.0,70,0.00,,---,0.00,VWS V13.01,2013-09-09 20:37:00,
2013-09-09 16:42:00,78.5,67.9,30.00,East,89,5.0,5.0,70,0.00,,---,0.00,VWS V13.01,2013-09-09 20:42:00,
2013-09-09 16:47:00,78.2,68.0,29.99,ESE,116,1.0,5.0,71,0.00,,---,0.00,VWS V13.01,2013-09-09 20:47:00,
2013-09-09 16:52:00,77.9,68.2,30.00,East,91,2.0,7.0,72,0.00,,---,0.00,VWS V13.01,2013-09-09 20:52:00,
2013-09-09 16:57:00,77.6,67.5,29.99,South,177,2.0,7.0,71,0.00,,---,0.00,VWS V13.01,2013-09-09 20:57:00,
2013-09-09 17:02:00,77.4,67.3,29.99,ESE,114,1.0,4.0,71,0.00,,---,0.00,VWS V13.01,2013-09-09 21:02:00,
2013-09-09 17:07:00,77.1,67.4,29.99,ESE,115,1.0,7.0,72,0.00,,---,0.00,VWS V13.01,2013-09-09 21:07:00,
2013-09-09 17:12:00,76.7,67.0,29.99,ESE,121,3.0,6.0,72,0.00,,---,0.00,VWS V13.01,2013-09-09 21:12:00,
2013-09-09 17:17:00,76.4,67.1,29.99,SE,136,2.0,6.0,73,0.00,,---,0.00,VWS V13.01,2013-09-09 21:17:00,
2013-09-09 17:22:00,76.1,67.2,30.00,SSE,149,2.0,4.0,74,0.00,,---,0.00,VWS V13.01,2013-09-09 21:22:00,
2013-09-09 17:27:00,75.7,67.2,30.00,SSE,152,3.0,5.0,75,0.00,,---,0.00,VWS V13.01,2013-09-09 21:27:00,
2013-09-09 17:32:00,75.4,66.9,29.99,SE,130,1.0,7.0,75,0.00,,---,0.00,VWS V13.01,2013-09-09 21:32:00,
2013-09-09 17:37:00,75.0,66.6,29.99,SSE,161,3.0,8.0,75,0.00,,---,0.00,VWS V13.01,2013-09-09 21:37:00,
2013-09-09 17:42:00,74.7,66.6,29.99,SE,144,0.0,5.0,76,0.00,,---,0.00,VWS V13.01,2013-09-09 21:42:00,
2013-09-09 17:47:00,74.4,66.7,30.00,South,179,3.0,8.0,77,0.00,,---,0.00,VWS V13.01,2013-09-09 21:47:00,
2013-09-09 17:52:00,74.0,66.7,29.99,SSE,168,1.0,5.0,78,0.00,,---,0.00,VWS V13.01,2013-09-09 21:52:00,
2013-09-09 17:57:00,73.6,67.1,29.99,South,187,1.0,6.0,80,0.01,,---,0.01,VWS V13.01,2013-09-09 21:57:00,
2013-09-09 18:02:00,73.1,66.6,30.00,SSE,159,2.0,4.0,80,0.01,,---,0.01,VWS V13.01,2013-09-09 22:02:00,
2013-09-09 18:07:00,72.7,66.9,30.00,SW,234,1.0,4.0,82,0.01,,---,0.01,VWS V13.01,2013-09-09 22:07:00,
2013-09-09 18:12:00,72.3,66.5,30.00,South,169,2.0,3.0,82,0.01,,---,0.02,VWS V13.01,2013-09-09 22:12:00,
2013-09-09 18:17:00,71.9,66.1,30.00,SSE,153,0.0,6.0,82,0.02,,---,0.02,VWS V13.01,2013-09-09 22:17:00,
2013-09-09 18:22:00,71.7,66.3,30.00,SSE,168,3.0,5.0,83,0.02,,---,0.02,VWS V13.01,2013-09-09 22:22:00,
2013-09-09 18:27:00,71.3,66.2,30.00,SSE,152,5.0,6.0,84,0.02,,---,0.02,VWS V13.01,2013-09-09 22:27:00,
2013-09-09 18:32:00,71.1,66.0,30.00,SSE,153,0.0,5.0,84,0.03,,---,0.03,VWS V13.01,2013-09-09 22:32:00,
2013-09-09 18:37:00,70.9,66.2,30.00,SSW,204,2.0,5.0,85,0.03,,---,0.03,VWS V13.01,2013-09-09 22:37:00,
2013-09-09 18:42:00,70.7,66.0,30.00,ESE,111,1.0,2.0,85,0.03,,---,0.03,VWS V13.01,2013-09-09 22:42:00,
2013-09-09 18:47:00,70.5,65.8,30.00,SSW,208,0.0,3.0,85,0.03,,---,0.03,VWS V13.01,2013-09-09 22:47:00,
2013-09-09 18:52:00,70.5,66.1,30.01,SSW,209,1.0,2.0,86,0.03,,---,0.03,VWS V13.01,2013-09-09 22:52:00,
2013-09-09 18:57:00,70.4,66.3,30.01,SSW,205,0.0,2.0,87,0.03,,---,0.03,VWS V13.01,2013-09-09 22:57:00,
2013-09-09 19:02:00,70.3,65.9,30.01,SSW,195,0.0,1.0,86,0.02,,---,0.03,VWS V13.01,2013-09-09 23:02:00,
2013-09-09 19:07:00,70.2,65.8,30.01,WSW,237,0.0,2.0,86,0.02,,---,0.03,VWS V13.01,2013-09-09 23:07:00,
2013-09-09 19:12:00,70.2,65.8,30.01,SSW,204,0.0,3.0,86,0.02,,---,0.03,VWS V13.01,2013-09-09 23:12:00,
2013-09-09 19:17:00,70.2,65.8,30.01,ESE,108,0.0,3.0,86,0.02,,---,0.03,VWS V13.01,2013-09-09 23:17:00,
2013-09-09 19:22:00,70.2,66.2,30.02,ESE,108,1.0,2.0,87,0.01,,---,0.03,VWS V13.01,2013-09-09 23:22:00,
2013-09-09 19:27:00,70.1,66.7,30.03,NW,312,8.0,9.0,89,0.01,,---,0.03,VWS V13.01,2013-09-09 23:27:00,
2013-09-09 19:32:00,70.0,67.3,30.03,NNW,328,0.0,4.0,91,0.02,,---,0.04,VWS V13.01,2013-09-09 23:32:00,
2013-09-09 19:37:00,69.9,67.2,30.03,North,360,3.0,5.0,91,0.03,,---,0.05,VWS V13.01,2013-09-09 23:37:00,
2013-09-09 19:42:00,69.8,67.4,30.03,North,5,2.0,3.0,92,0.03,,---,0.07,VWS V13.01,2013-09-09 23:42:00,
2013-09-09 19:47:00,69.7,67.3,30.03,ENE,63,2.0,5.0,92,0.08,,---,0.12,VWS V13.01,2013-09-09 23:47:00,
2013-09-09 19:52:00,69.6,67.5,30.03,ENE,66,0.0,1.0,93,0.10,,---,0.14,VWS V13.01,2013-09-09 23:52:00,
2013-09-09 19:57:00,69.5,67.4,30.03,East,88,1.0,3.0,93,0.12,,---,0.15,VWS V13.01,2013-09-09 23:57:00,
2013-09-09 20:02:00,69.3,67.2,30.03,East,80,0.0,4.0,93,0.13,,---,0.16,VWS V13.01,2013-09-10 00:02:00,
2013-09-09 20:07:00,69.2,67.1,30.03,ESE,113,1.0,4.0,93,0.14,,---,0.17,VWS V13.01,2013-09-10 00:07:00,
2013-09-09 20:12:00,69.0,66.9,30.03,SE,142,0.0,1.0,93,0.14,,---,0.17,VWS V13.01,2013-09-10 00:12:00,
2013-09-09 20:17:00,68.8,66.7,30.03,SE,142,0.0,1.0,93,0.14,,---,0.17,VWS V13.01,2013-09-10 00:17:00,
2013-09-09 20:22:00,68.7,66.6,30.03,SE,142,0.0,2.0,93,0.14,,---,0.17,VWS V13.01,2013-09-10 00:22:00,
2013-09-09 20:27:00,68.5,66.4,30.03,SE,142,0.0,2.0,93,0.15,,---,0.18,VWS V13.01,2013-09-10 00:27:00,
2013-09-09 20:32:00,68.5,66.4,30.03,ESE,102,3.0,3.0,93,0.15,,---,0.18,VWS V13.01,2013-09-10 00:32:00,
2013-09-09 20:37:00,68.4,66.0,30.03,ESE,115,2.0,5.0,92,0.15,,---,0.18,VWS V13.01,2013-09-10 00:37:00,
2013-09-09 20:42:00,68.2,65.8,30.03,SSW,202,2.0,4.0,92,0.12,,---,0.18,VWS V13.01,2013-09-10 00:42:00,
2013-09-09 20:47:00,68.2,65.8,30.03,SSE,160,0.0,6.0,92,0.12,,---,0.18,VWS V13.01,2013-09-10 00:47:00,
2013-09-09 20:52:00,68.2,65.8,30.03,SE,130,2.0,4.0,92,0.05,,---,0.18,VWS V13.01,2013-09-10 00:52:00,
2013-09-09 20:57:00,68.2,65.8,30.03,South,174,1.0,6.0,92,0.06,,---,0.19,VWS V13.01,2013-09-10 00:57:00,
2013-09-09 21:02:00,68.2,65.8,30.03,SE,142,2.0,5.0,92,0.04,,---,0.19,VWS V13.01,2013-09-10 01:02:00,
2013-09-09 21:07:00,68.2,65.5,30.03,SSE,158,2.0,5.0,91,0.04,,---,0.19,VWS V13.01,2013-09-10 01:07:00,
2013-09-09 21:12:00,68.2,65.5,30.03,SE,126,0.0,3.0,91,0.02,,---,0.19,VWS V13.01,2013-09-10 01:12:00,
2013-09-09 21:17:00,68.2,65.5,30.03,SE,138,1.0,4.0,91,0.02,,---,0.19,VWS V13.01,2013-09-10 01:17:00,
2013-09-09 21:22:00,68.1,65.4,30.03,East,96,0.0,1.0,91,0.02,,---,0.19,VWS V13.01,2013-09-10 01:22:00,
2013-09-09 21:27:00,68.1,65.4,30.03,East,96,0.0,2.0,91,0.02,,---,0.19,VWS V13.01,2013-09-10 01:27:00,
2013-09-09 21:32:00,68.1,65.4,30.03,ESE,122,1.0,3.0,91,0.01,,---,0.19,VWS V13.01,2013-09-10 01:32:00,
2013-09-09 21:37:00,68.1,65.4,30.03,ESE,113,2.0,3.0,91,0.01,,---,0.19,VWS V13.01,2013-09-10 01:37:00,
2013-09-09 21:42:00,68.1,65.4,30.03,ESE,113,0.0,1.0,91,0.01,,---,0.19,VWS V13.01,2013-09-10 01:42:00,
2013-09-09 21:47:00,68.1,65.4,30.03,ESE,106,0.0,2.0,91,0.01,,---,0.19,VWS V13.01,2013-09-10 01:47:00,
2013-09-09 21:52:00,68.1,65.4,30.03,ESE,107,0.0,1.0,91,0.01,,---,0.19,VWS V13.01,2013-09-10 01:52:00,
2013-09-09 21:57:00,68.1,65.7,30.04,ESE,106,1.0,2.0,92,0.01,,---,0.19,VWS V13.01,2013-09-10 01:57:00,
2013-09-09 22:02:00,68.1,65.4,30.04,ESE,109,2.0,2.0,91,0.00,,---,0.19,VWS V13.01,2013-09-10 02:02:00,
2013-09-09 22:07:00,68.1,65.7,30.03,ESE,111,1.0,2.0,92,0.00,,---,0.19,VWS V13.01,2013-09-10 02:07:00,
2013-09-09 22:12:00,68.1,65.7,30.03,SE,144,0.0,2.0,92,0.00,,---,0.19,VWS V13.01,2013-09-10 02:12:00,
2013-09-09 22:17:00,68.2,65.8,30.03,SE,144,1.0,3.0,92,0.00,,---,0.19,VWS V13.01,2013-09-10 02:17:00,
2013-09-09 22:22:00,68.2,65.8,30.03,SE,144,0.0,1.0,92,0.00,,---,0.19,VWS V13.01,2013-09-10 02:22:00,
2013-09-09 22:27:00,68.2,65.8,30.03,SE,144,0.0,1.0,92,0.00,,---,0.19,VWS V13.01,2013-09-10 02:27:00,
2013-09-09 22:32:00,68.2,65.8,30.03,SE,144,0.0,1.0,92,0.00,,---,0.19,VWS V13.01,2013-09-10 02:32:00,
2013-09-09 22:37:00,68.2,65.8,30.03,SE,144,0.0,1.0,92,0.00,,---,0.19,VWS V13.01,2013-09-10 02:37:00,
2013-09-09 22:42:00,68.2,65.8,30.03,SE,144,1.0,1.0,92,0.00,,---,0.19,VWS V13.01,2013-09-10 02:42:00,
2013-09-09 22:47:00,68.2,65.8,30.03,SE,137,1.0,3.0,92,0.00,,---,0.19,VWS V13.01,2013-09-10 02:47:00,
2013-09-09 22:52:00,68.2,65.8,30.03,SSE,150,0.0,2.0,92,0.00,,---,0.19,VWS V13.01,2013-09-10 02:52:00,
2013-09-09 22:57:00,68.3,65.9,30.03,SSE,150,0.0,2.0,92,0.00,,---,0.19,VWS V13.01,2013-09-10 02:57:00,
2013-09-09 23:02:00,68.3,65.9,30.03,SSE,150,0.0,1.0,92,0.00,,---,0.19,VWS V13.01,2013-09-10 03:02:00,
2013-09-09 23:07:00,68.3,65.9,30.03,SSE,150,0.0,1.0,92,0.00,,---,0.19,VWS V13.01,2013-09-10 03:07:00,
2013-09-09 23:12:00,68.2,65.8,30.03,SSE,150,0.0,0.0,92,0.00,,---,0.19,VWS V13.01,2013-09-10 03:12:00,
2013-09-09 23:17:00,68.2,65.8,30.03,SSE,150,0.0,1.0,92,0.00,,---,0.19,VWS V13.01,2013-09-10 03:17:00,
2013-09-09 23:22:00,68.2,66.1,30.03,SSE,150,0.0,1.0,93,0.00,,---,0.19,VWS V13.01,2013-09-10 03:22:00,
2013-09-09 23:27:00,68.2,66.1,30.02,SSE,150,0.0,2.0,93,0.00,,---,0.19,VWS V13.01,2013-09-10 03:27:00,
2013-09-09 23:32:00,68.2,66.1,30.02,SSE,150,0.0,1.0,93,0.00,,---,0.19,VWS V13.01,2013-09-10 03:32:00,
2013-09-09 23:37:00,68.2,66.1,30.03,SSE,150,0.0,1.0,93,0.00,,---,0.19,VWS V13.01,2013-09-10 03:37:00,
2013-09-09 23:42:00,68.1,66.0,30.03,SSE,150,0.0,2.0,93,0.00,,---,0.19,VWS V13.01,2013-09-10 03:42:00,
2013-09-09 23:47:00,68.1,66.3,30.03,SSE,150,0.0,2.0,94,0.00,,---,0.19,VWS V13.01,2013-09-10 03:47:00,
2013-09-09 23:52:00,68.0,66.2,30.03,SSE,150,0.0,1.0,94,0.00,,---,0.19,VWS V13.01,2013-09-10 03:52:00,
2013-09-09 23:57:00,68.0,66.2,30.03,SSE,150,0.0,1.0,94,0.00,,---,0.19,VWS V13.01,2013-09-10 03:57:00,